User: anonymous   Login
Location: Black Rock Desert
(40.7548°N, 119.2364°W)
Time: 14:56:44
(UTC-07:00)
Language:

Cosmos 1340 Rocket - Orbit

View from above orbital plane
View from above orbital plane
View from above satellite
View from above satellite

Ground track
Ground track

The orbit data is extracted from the following two-line orbital elements,

1 13068U 82013B   15187.49739768  .00002002  00000-0  13542-3 0  9999
2 13068 081.2048 314.4164 0022848 142.5685 217.7135 15.05906504816344
Epoch (UTC): 06 July 2015 11:56:15
Eccentricity: 0.0022848
inclination: 81.2048°
perigee height: 533 km
apogee height: 564 km
right ascension of ascending node: 314.4164°
argument of perigee: 142.5685°
revolutions per day: 15.05906504
mean anomaly at epoch: 217.7135°
orbit number at epoch: 81634

The dashed part of the orbit path shows where the satellite is in the earth's shadow,  

DLR